TJS-2

Last updated on Wed Sep 17 2025 00:02:49 GMT+0000 (Coordinated Universal Time)

1 41911U 17001A 25259.63148900 -.00000026 00000+0 00000+0 0 9996 2 41911 0.1203 92.7831 0001804 133.0972 63.8060 1.00273646 31974
UTC large
Height (km)
Speed (km/s)
/
Latitude / Longitude
Inclination (degrees)
Orbital Period (minutes)
Azimuth
Elevation
Range (km)
Doppler Factor

Next 0 passes for location: London (51.5072 / 0.1276)

Sorry there are no passes over London.